Location: Valencia
(39.4696°N, 0.3770°W)
Time: 11:24:22
(UTC+02:00)

ISS - Visible Passes

Search period start: 31 July 2015 00:00
Search period end: 10 August 2015 00:00
Orbit: 402 x 403 km, 51.6° (Epoch: 30 July)

Date Brightness Start Highest point End Pass type
(mag) Time Alt. Az. Time Alt. Az. Time Alt. Az.
31 Jul 0.3 02:59:16 10° N 02:59:57 10° N 03:00:39 10° NNE visible
31 Jul -0.9 04:34:33 10° NNW 04:37:17 24° NNE 04:40:03 10° E visible
31 Jul -3.0 06:10:43 10° WNW 06:13:50 42° SW 06:16:55 10° SSE visible
31 Jul -3.4 22:48:57 10° SW 22:52:11 86° NW 22:55:28 10° NE visible
01 Aug -0.3 00:26:49 10° WNW 00:29:02 17° NNW 00:30:44 12° NNE visible
01 Aug -0.3 03:43:15 16° N 03:44:00 17° NNE 03:46:16 10° ENE visible
01 Aug -3.5 05:17:33 10° NW 05:20:49 89° SW 05:24:05 10° SE visible
01 Aug -3.0 21:56:01 10° SSW 21:59:07 44° SE 22:02:16 10° ENE visible
01 Aug -0.9 23:32:58 10° W 23:35:41 23° NNW 23:38:24 10° NNE visible
02 Aug 0.3 01:12:25 10° NNW 01:13:02 10° N 01:13:20 10° N visible
02 Aug -0.6 04:30:19 13° ESE 04:30:19 13° ESE 04:30:48 10° ESE visible
02 Aug -1.8 06:03:17 17° WSW 06:03:51 17° SW 06:06:04 10° S visible
02 Aug -1.8 22:39:17 10° WSW 22:42:20 38° NNW 22:45:25 10° NE visible
03 Aug 0.1 00:18:05 10° NW 00:19:30 12° NNW 00:20:52 10° NNE visible
03 Aug -3.0 21:45:47 10° WSW 21:49:02 72° NW 21:52:18 10° NE visible
03 Aug -0.2 23:23:52 10° WNW 23:25:56 15° NNW 23:27:58 10° NNE visible
04 Aug -0.7 22:29:45 10° WNW 22:32:21 21° NNW 22:34:57 10° NNE visible
05 Aug 0.2 00:09:22 10° N 00:09:44 10° N 00:10:05 10° N visible
05 Aug -1.4 21:35:47 10° W 21:38:48 33° NNW 21:41:48 10° NE visible
05 Aug -0.1 23:14:45 10° NNW 23:15:59 12° N 23:17:10 10° N visible
06 Aug 0.2 00:52:29 10° N 00:52:44 10° N 00:52:44 10° N visible
06 Aug -0.3 22:20:17 10° NW 22:22:12 14° NNW 22:24:06 10° NNE visible
08 Aug 0.2 00:41:24 10° NNW 00:41:47 11° NNW 00:41:47 11° NNW visible
08 Aug -0.2 22:10:47 10° NNW 22:11:51 11° N 22:12:52 10° N visible
08 Aug -0.3 23:48:10 10° N 23:49:23 12° N 23:49:56 11° NNE visible
09 Aug -0.1 22:55:00 10° N 22:55:21 10° N 22:55:43 10° N visible
